{"data":{"norad_id":61769,"intl_designator":"2024-199AL","name":"KOSAR","alt_names":[],"object_type":"PAYLOAD","status":"ACTIVE","operator":null,"country":"IRAN","launch_date":"2024-11-04","launch_site_code":"VOSTO","launch_vehicle":null,"mission":null,"orbit_class":"UNKNOWN","rcs_meters":null,"size_class":null,"mass_kg":null,"dimensions":null,"purposes":[],"wikipedia_slug":null,"has_3d_model":false,"image_url":null,"decayed_at":null,"tle_current":{"epoch":"2026-09-22T21:14:23.158464Z","epoch_age_seconds":96241,"freshness":"FRESH","line1":"1 61769U 24199AL  26265.88499026  .00034089  00000+0  41744-3 0  9997","line2":"2 61769  97.2750 143.9853 0001174 284.5464  75.5663 15.60305517149627","mean_motion":15.60305517,"eccentricity":0.0001174,"inclination_deg":97.275,"raan_deg":143.9853,"arg_perigee_deg":284.5464,"mean_anomaly_deg":75.5663,"bstar":0.00041744,"rev_number":14962,"period_min":92.289617918463,"perigee_km":385.97966321198,"apogee_km":387.56806428279,"semimajor_km":6764.9108637474,"source":"CELESTRAK","updated_at":"2026-09-23T09:00:21.033699Z"}}}